DLH447 KDEN-EDDF

Flight info

Callsign DLH447
Flight time 3h 58m
Altitude 33000
Route EEONS8 WYNDM DCT OBH DCT FOD DCT GRB/N0488F350 J101 SSM DCT 49N080W 55N070W DCT MCKEE DCT LAKES DCT IRBIM/M083F350 DCT RADUN DCT 62N050W/M083F370 62N040W 62N030W 60N020W DCT GOMUP/N0483F370 DCT GINGA DCT ERKIT/N0478F390 N110 DOLAS DCT NAVPI DCT NOLRU DCT DIXAT DIXAT2C
Aircraft A346/H-SDE2E3FGHIJ3J4J5M1RWXY/LB1D1

Departure

Time 2026-05-07 18:58
Airport Denver International Airport (KDEN)

Arrival

Time 2026-05-07 22:57
Airport Frankfurt Main Airport (EDDF)
Time Latitude Longitude Altitude Speed Heading
2026-05-07 18:42 39.85454 -104.67306 5386 ft 0 kts 177°
2026-05-07 18:48 39.85460 -104.67307 5379 ft 0 kts 177°
2026-05-07 18:48 39.85485 -104.67308 5383 ft 0 kts 177°
2026-05-07 18:48 39.85511 -104.67310 5386 ft 0 kts 177°
2026-05-07 18:49 39.85537 -104.67312 5384 ft 0 kts 177°
2026-05-07 18:49 39.85556 -104.67313 5381 ft 0 kts 177°
2026-05-07 18:50 39.85557 -104.67314 5381 ft 0 kts 177°
2026-05-07 18:50 39.85579 -104.67315 5379 ft 0 kts 177°
2026-05-07 18:50 39.85605 -104.67317 5380 ft 0 kts 177°
2026-05-07 18:50 39.85618 -104.67318 5379 ft 0 kts 177°
2026-05-07 18:52 39.85615 -104.67318 5378 ft 1 kts 186°
2026-05-07 18:52 39.85595 -104.67329 5374 ft 4 kts 221°
2026-05-07 18:53 39.85592 -104.67373 5376 ft 8 kts 269°
2026-05-07 18:53 39.85591 -104.67478 5390 ft 15 kts 271°
2026-05-07 18:53 39.85593 -104.67636 5390 ft 20 kts 272°
2026-05-07 18:53 39.85597 -104.67842 5385 ft 24 kts 270°
2026-05-07 18:54 39.85598 -104.68031 5385 ft 16 kts 270°
2026-05-07 18:54 39.85598 -104.68174 5384 ft 15 kts 270°
2026-05-07 18:54 39.85598 -104.68314 5382 ft 16 kts 270°
2026-05-07 18:54 39.85604 -104.68460 5374 ft 17 kts 295°
2026-05-07 18:55 39.85707 -104.68512 5377 ft 17 kts 355°
2026-05-07 18:55 39.85821 -104.68512 5377 ft 16 kts
2026-05-07 18:55 39.85932 -104.68511 5377 ft 15 kts
2026-05-07 18:55 39.86039 -104.68509 5376 ft 15 kts
2026-05-07 18:56 39.86147 -104.68507 5374 ft 16 kts
2026-05-07 18:56 39.86260 -104.68507 5372 ft 17 kts
2026-05-07 18:56 39.86380 -104.68513 5369 ft 17 kts 341°
2026-05-07 18:56 39.86427 -104.68641 5367 ft 16 kts 280°
2026-05-07 18:57 39.86493 -104.68713 5369 ft 2 kts 354°
2026-05-07 18:57 39.86631 -104.68717 5370 ft 50 kts
2026-05-07 18:58 39.87201 -104.68712 5365 ft 112 kts
2026-05-07 18:58 39.88162 -104.68699 5368 ft 163 kts
2026-05-07 18:58 39.89439 -104.68683 5400 ft 198 kts 358°
2026-05-07 18:58 39.90772 -104.68586 6113 ft 192 kts 12°
2026-05-07 18:59 39.91971 -104.67728 6542 ft 206 kts 40°
2026-05-07 18:59 39.92876 -104.66244 7047 ft 213 kts 64°
2026-05-07 18:59 39.93256 -104.64348 7387 ft 222 kts 79°
2026-05-07 18:59 39.93450 -104.62290 7632 ft 235 kts 82°
2026-05-07 19:00 39.93630 -104.60116 7873 ft 247 kts 82°
2026-05-07 19:00 39.93832 -104.57830 8135 ft 259 kts 81°
2026-05-07 19:00 39.94060 -104.55465 8521 ft 264 kts 81°
2026-05-07 19:00 39.94296 -104.53075 9007 ft 266 kts 80°
2026-05-07 19:01 39.94541 -104.50669 9498 ft 269 kts 80°
2026-05-07 19:01 39.94793 -104.48244 9998 ft 271 kts 79°
2026-05-07 19:01 39.95052 -104.45789 10424 ft 274 kts 79°
2026-05-07 19:01 39.95313 -104.43320 10852 ft 275 kts 79°
2026-05-07 19:02 39.95577 -104.40831 11294 ft 277 kts 79°
2026-05-07 19:02 39.95843 -104.38329 11733 ft 279 kts 79°
2026-05-07 19:02 39.96108 -104.35815 12171 ft 280 kts 79°
2026-05-07 19:02 39.96374 -104.33281 12610 ft 282 kts 79°
2026-05-07 19:03 39.96641 -104.30733 13027 ft 284 kts 79°
2026-05-07 19:03 39.96911 -104.28164 13453 ft 286 kts 79°
2026-05-07 19:03 39.97181 -104.25583 13879 ft 287 kts 79°
2026-05-07 19:03 39.97451 -104.22992 14252 ft 289 kts 79°
2026-05-07 19:04 39.97726 -104.20375 14630 ft 292 kts 79°
2026-05-07 19:04 39.98001 -104.17736 14949 ft 295 kts 79°
2026-05-07 19:04 39.98279 -104.15066 15282 ft 298 kts 79°
2026-05-07 19:04 39.98557 -104.12373 15639 ft 300 kts 79°
2026-05-07 19:05 39.98837 -104.09660 15970 ft 305 kts 79°
2026-05-07 19:05 39.99125 -104.06880 16098 ft 318 kts 79°
2026-05-07 19:05 39.99425 -104.03973 16326 ft 329 kts 79°
2026-05-07 19:05 39.99734 -104.00963 16531 ft 339 kts 80°
2026-05-07 19:06 40.00053 -103.97842 16734 ft 350 kts 80°
2026-05-07 19:06 40.00712 -103.91356 17113 ft 369 kts 80°
2026-05-07 19:06 40.01052 -103.87991 17318 ft 378 kts 80°
2026-05-07 19:07 40.01400 -103.84539 17491 ft 387 kts 80°
2026-05-07 19:07 40.01755 -103.81015 17664 ft 395 kts 81°
2026-05-07 19:07 40.02136 -103.77428 17814 ft 402 kts 78°
2026-05-07 19:07 40.02664 -103.73809 17955 ft 409 kts 76°
2026-05-07 19:08 40.03057 -103.71385 18071 ft 414 kts 76°
2026-05-07 19:08 40.03672 -103.67668 18223 ft 421 kts 75°
2026-05-07 19:08 40.04299 -103.63889 18364 ft 429 kts 76°
2026-05-07 19:08 40.04932 -103.60051 18481 ft 435 kts 76°
2026-05-07 19:09 40.05572 -103.56153 18593 ft 441 kts 76°
2026-05-07 19:09 40.06218 -103.52199 18707 ft 447 kts 76°
2026-05-07 19:09 40.06868 -103.48206 18941 ft 451 kts 76°
2026-05-07 19:09 40.07524 -103.44168 19211 ft 454 kts 76°
2026-05-07 19:10 40.08181 -103.40112 19523 ft 457 kts 76°
2026-05-07 19:10 40.08837 -103.36045 19818 ft 459 kts 76°
2026-05-07 19:10 40.09496 -103.31949 20100 ft 461 kts 76°
2026-05-07 19:10 40.10156 -103.27836 20393 ft 463 kts 76°
2026-05-07 19:11 40.10817 -103.23712 20697 ft 464 kts 76°
2026-05-07 19:11 40.11480 -103.19567 20995 ft 466 kts 76°
2026-05-07 19:11 40.12144 -103.15407 21319 ft 469 kts 76°
2026-05-07 19:11 40.12811 -103.11208 21607 ft 471 kts 75°
2026-05-07 19:12 40.13478 -103.07009 21983 ft 472 kts 75°
2026-05-07 19:12 40.14148 -103.02785 22349 ft 475 kts 75°
2026-05-07 19:12 40.14822 -102.98522 22737 ft 477 kts 75°
2026-05-07 19:12 40.15495 -102.94259 23150 ft 480 kts 75°
2026-05-07 19:13 40.16171 -102.89963 23548 ft 482 kts 76°
2026-05-07 19:13 40.16846 -102.85653 23885 ft 485 kts 75°
2026-05-07 19:13 40.17525 -102.81312 24216 ft 488 kts 75°
2026-05-07 19:13 40.18206 -102.76947 24539 ft 490 kts 75°
2026-05-07 19:14 40.18889 -102.72557 24872 ft 493 kts 75°
2026-05-07 19:14 40.19574 -102.68146 25202 ft 495 kts 75°
2026-05-07 19:14 40.20258 -102.63719 25525 ft 498 kts 75°
2026-05-07 19:14 40.20946 -102.59261 25832 ft 500 kts 75°
2026-05-07 19:15 40.21636 -102.54784 26138 ft 503 kts 75°
2026-05-07 19:15 40.22326 -102.50288 26442 ft 505 kts 75°
2026-05-07 19:15 40.23018 -102.45763 26734 ft 508 kts 75°
2026-05-07 19:15 40.23715 -102.41198 27036 ft 510 kts 76°
2026-05-07 19:16 40.24412 -102.36630 27336 ft 513 kts 76°
2026-05-07 19:16 40.25111 -102.32031 27612 ft 516 kts 76°
2026-05-07 19:16 40.25811 -102.27407 27916 ft 518 kts 76°
2026-05-07 19:16 40.26511 -102.22767 28218 ft 520 kts 76°
2026-05-07 19:17 40.27213 -102.18099 28570 ft 521 kts 76°
2026-05-07 19:17 40.27911 -102.13440 29024 ft 519 kts 76°
2026-05-07 19:17 40.28604 -102.08802 29478 ft 518 kts 76°
2026-05-07 19:17 40.29295 -102.04167 29906 ft 517 kts 76°
2026-05-07 19:18 40.29987 -101.99522 30252 ft 517 kts 76°
2026-05-07 19:18 40.30673 -101.94893 30582 ft 517 kts 76°
2026-05-07 19:18 40.31358 -101.90258 30877 ft 517 kts 76°
2026-05-07 19:18 40.32056 -101.85535 30973 ft 523 kts 76°
2026-05-07 19:19 40.32740 -101.80889 31076 ft 527 kts 76°
2026-05-07 19:19 40.33437 -101.76139 31184 ft 532 kts 76°
2026-05-07 19:19 40.34842 -101.66513 31379 ft 540 kts 76°
2026-05-07 19:20 40.36260 -101.56728 31535 ft 547 kts 76°
2026-05-07 19:20 40.36973 -101.51813 31669 ft 548 kts 76°
2026-05-07 19:20 40.37811 -101.46934 31847 ft 547 kts 72°
2026-05-07 19:21 40.38848 -101.42119 32043 ft 545 kts 69°
2026-05-07 19:21 40.40083 -101.37414 32233 ft 543 kts 65°
2026-05-07 19:21 40.41510 -101.32829 32412 ft 542 kts 63°
2026-05-07 19:21 40.43036 -101.28309 32624 ft 541 kts 62°
2026-05-07 19:22 40.44585 -101.23796 32782 ft 542 kts 62°
2026-05-07 19:22 40.46138 -101.19274 32899 ft 542 kts 62°
2026-05-07 19:22 40.49216 -101.10243 32908 ft 541 kts 62°
2026-05-07 19:23 40.52276 -101.01190 32905 ft 541 kts 62°
2026-05-07 19:23 40.55330 -100.92109 32917 ft 541 kts 62°
2026-05-07 19:24 40.58364 -100.83052 32918 ft 541 kts 62°
2026-05-07 19:24 40.61395 -100.73973 32907 ft 541 kts 62°
2026-05-07 19:25 40.64418 -100.64890 32914 ft 540 kts 63°
2026-05-07 19:25 40.67424 -100.55826 32928 ft 539 kts 63°
2026-05-07 19:26 40.70440 -100.46706 32901 ft 540 kts 63°
2026-05-07 19:26 40.73437 -100.37612 32909 ft 540 kts 63°
2026-05-07 19:27 40.76430 -100.28501 32903 ft 540 kts 63°
2026-05-07 19:27 40.79416 -100.19381 32929 ft 540 kts 63°
2026-05-07 19:28 40.82397 -100.10245 32914 ft 542 kts 63°
2026-05-07 19:28 40.85380 -100.01075 32917 ft 542 kts 63°
2026-05-07 19:29 40.88361 -99.91876 32918 ft 542 kts 63°
2026-05-07 19:29 40.91333 -99.82679 32941 ft 542 kts 63°
2026-05-07 19:30 40.94296 -99.73472 32944 ft 542 kts 63°
2026-05-07 19:30 40.97221 -99.64347 32913 ft 534 kts 63°
2026-05-07 19:31 41.00126 -99.55270 32907 ft 533 kts 63°
2026-05-07 19:31 41.03018 -99.46203 32920 ft 533 kts 63°
2026-05-07 19:32 41.16834 -99.02423 32907 ft 534 kts 63°
2026-05-07 19:32 41.30370 -98.58837 32913 ft 528 kts 64°
2026-05-07 19:33 41.44032 -98.15548 32910 ft 526 kts 62°
2026-05-07 19:33 41.57804 -97.72997 32902 ft 518 kts 63°
2026-05-07 19:34 41.70974 -97.31620 32913 ft 520 kts 63°
2026-05-07 19:34 41.83846 -96.90549 32907 ft 520 kts 63°
2026-05-07 19:35 41.96936 -96.48126 32905 ft 524 kts 63°
2026-05-07 19:35 42.10071 -96.04849 32917 ft 525 kts 62°
2026-05-07 19:36 42.22959 -95.61680 32934 ft 528 kts 62°
2026-05-07 19:36 42.35643 -95.18485 32929 ft 530 kts 62°
2026-05-07 19:37 42.48035 -94.75572 32947 ft 533 kts 62°
2026-05-07 19:37 42.61219 -94.29304 32922 ft 531 kts 59°
2026-05-07 19:38 42.76882 -93.84856 32909 ft 530 kts 57°
2026-05-07 19:38 42.92961 -93.38610 32924 ft 533 kts 57°
2026-05-07 19:39 43.08778 -92.92348 32929 ft 533 kts 57°
2026-05-07 19:39 43.21557 -92.54389 32951 ft 534 kts 58°
2026-05-07 19:40 43.39556 -91.99988 32932 ft 535 kts 59°
2026-05-07 19:40 43.52427 -91.60399 32925 ft 533 kts 59°
2026-05-07 19:41 43.67613 -91.12922 32961 ft 531 kts 60°
2026-05-07 19:41 43.82159 -90.66630 32913 ft 533 kts 61°
2026-05-07 19:42 43.96995 -90.18541 32905 ft 531 kts 62°
2026-05-07 19:42 44.11353 -89.71092 32940 ft 530 kts 63°
2026-05-07 19:43 44.25957 -89.21950 32944 ft 529 kts 63°
2026-05-07 19:43 44.40159 -88.73229 32944 ft 529 kts 64°
2026-05-07 19:44 44.54291 -88.24315 32924 ft 526 kts 60°
2026-05-07 19:44 44.74559 -87.81963 32935 ft 518 kts 50°
2026-05-07 19:45 44.95867 -87.39491 32951 ft 519 kts 51°
2026-05-07 19:45 45.16310 -86.98137 32952 ft 518 kts 51°
2026-05-07 19:46 45.37174 -86.55305 32949 ft 517 kts 52°
2026-05-07 19:46 45.44516 -86.40078 32937 ft 518 kts 52°
2026-05-07 19:47 45.52662 -86.23086 32955 ft 517 kts 52°
2026-05-07 19:47 45.60757 -86.06104 32943 ft 517 kts 53°
2026-05-07 19:48 45.68837 -85.89046 32928 ft 517 kts 53°
2026-05-07 19:48 45.75963 -85.73918 32948 ft 516 kts 53°
2026-05-07 19:49 45.79970 -85.65374 32944 ft 516 kts 53°
2026-05-07 19:49 45.88969 -85.46096 32962 ft 516 kts 53°
2026-05-07 19:50 46.08466 -85.03864 32945 ft 514 kts 54°
2026-05-07 19:50 46.27271 -84.62518 32920 ft 514 kts 54°
2026-05-07 19:51 46.46980 -84.22397 32895 ft 510 kts 44°
2026-05-07 19:51 46.69893 -83.86926 32893 ft 511 kts 45°
2026-05-07 19:52 46.92787 -83.50847 32885 ft 510 kts 45°
2026-05-07 19:52 47.15878 -83.13959 32896 ft 510 kts 45°
2026-05-07 19:53 47.38816 -82.76804 32907 ft 510 kts 46°
2026-05-07 19:53 47.61531 -82.39496 32896 ft 510 kts 46°
2026-05-07 19:54 47.84257 -82.01637 32884 ft 510 kts 46°
2026-05-07 19:54 48.06782 -81.63576 32871 ft 511 kts 47°
2026-05-07 19:55 48.29358 -81.24873 32862 ft 511 kts 47°
2026-05-07 19:55 48.51617 -80.86154 32857 ft 511 kts 47°
2026-05-07 19:56 48.73631 -80.47298 32844 ft 510 kts 48°
2026-05-07 19:56 48.84485 -80.27926 32831 ft 511 kts 48°
2026-05-07 19:57 48.89080 -80.19684 32839 ft 511 kts 48°
2026-05-07 19:57 49.06214 -79.91338 32823 ft 508 kts 40°
2026-05-07 19:58 49.32292 -79.55449 32811 ft 508 kts 40°
2026-05-07 19:58 49.57872 -79.19586 32816 ft 507 kts 40°
2026-05-07 19:59 49.83164 -78.83598 32820 ft 506 kts 41°
2026-05-07 19:59 50.08322 -78.47263 32825 ft 506 kts 41°
2026-05-07 20:00 50.33417 -78.10473 32821 ft 505 kts 41°
2026-05-07 20:00 50.58377 -77.73315 32819 ft 505 kts 42°
2026-05-07 20:01 50.83201 -77.35787 32813 ft 504 kts 42°
2026-05-07 20:01 51.07243 -76.98884 32806 ft 506 kts 43°
2026-05-07 20:02 51.31572 -76.60961 32805 ft 506 kts 44°
2026-05-07 20:02 51.55563 -76.22976 32797 ft 507 kts 44°
2026-05-07 20:03 51.79672 -75.84192 32803 ft 507 kts 45°
2026-05-07 20:03 52.03356 -75.45485 32793 ft 507 kts 45°
2026-05-07 20:04 52.26749 -75.06637 32796 ft 507 kts 46°
2026-05-07 20:04 52.49950 -74.67487 32771 ft 508 kts 46°
2026-05-07 20:05 52.72809 -74.28290 32781 ft 508 kts 47°
2026-05-07 20:05 52.95278 -73.89133 32786 ft 508 kts 47°
2026-05-07 20:06 53.17795 -73.49251 32786 ft 508 kts 48°
2026-05-07 20:06 53.40664 -73.08067 32783 ft 511 kts 49°
2026-05-07 20:07 53.63796 -72.65688 32778 ft 512 kts 49°
2026-05-07 20:07 53.87184 -72.22076 32773 ft 515 kts 50°
2026-05-07 20:08 54.10227 -71.78331 32762 ft 516 kts 50°
2026-05-07 20:08 54.33138 -71.34044 32759 ft 519 kts 51°
2026-05-07 20:09 54.55656 -70.89717 32755 ft 520 kts 52°
2026-05-07 20:10 54.89495 -70.21546 32751 ft 521 kts 53°
2026-05-07 20:10 55.13528 -69.77068 32739 ft 524 kts 47°
2026-05-07 20:11 55.38896 -69.33576 32728 ft 526 kts 48°
2026-05-07 20:11 55.64171 -68.89371 32732 ft 528 kts 48°
2026-05-07 20:12 55.89328 -68.44517 32734 ft 530 kts 49°
2026-05-07 20:12 56.10369 -68.06323 32744 ft 533 kts 49°
2026-05-07 20:13 56.35963 -67.59000 32736 ft 533 kts 50°
2026-05-07 20:13 56.61365 -67.11050 32740 ft 532 kts 50°
2026-05-07 20:14 56.82858 -66.58728 32716 ft 526 kts 60°
2026-05-07 20:14 57.03063 -66.04555 32709 ft 526 kts 61°
2026-05-07 20:15 57.23081 -65.49673 32682 ft 527 kts 62°
2026-05-07 20:15 57.42715 -64.94591 32732 ft 527 kts 62°
2026-05-07 20:16 57.62128 -64.38862 32738 ft 529 kts 63°
2026-05-07 20:16 57.81607 -63.81599 32761 ft 531 kts 63°
2026-05-07 20:17 58.00347 -63.24664 32750 ft 526 kts 69°
2026-05-07 20:17 58.15529 -62.64279 32761 ft 527 kts 72°
2026-05-07 20:17 58.22948 -62.34114 32930 ft 530 kts 72°
2026-05-07 20:18 58.30489 -62.03019 34526 ft 526 kts 72°
2026-05-07 20:18 58.38076 -61.71271 35823 ft 524 kts 71°
2026-05-07 20:18 58.45383 -61.40262 36788 ft 521 kts 71°
2026-05-07 20:18 58.53987 -61.10573 36784 ft 532 kts 55°
2026-05-07 20:19 58.65016 -60.83224 36778 ft 532 kts 57°
2026-05-07 20:19 58.86354 -60.27420 36800 ft 534 kts 57°
2026-05-07 20:20 59.07302 -59.71285 36813 ft 535 kts 58°
2026-05-07 20:20 59.28945 -59.11856 36829 ft 537 kts 58°
2026-05-07 20:21 59.51003 -58.49705 36857 ft 537 kts 58°
2026-05-07 20:21 59.72951 -57.86185 36887 ft 538 kts 59°
2026-05-07 20:22 59.94335 -57.22595 36896 ft 539 kts 59°
2026-05-07 20:22 60.15264 -56.58625 36926 ft 540 kts 59°
2026-05-07 20:23 60.35871 -55.93893 36954 ft 540 kts 59°
2026-05-07 20:23 60.56068 -55.28626 36970 ft 539 kts 59°
2026-05-07 20:24 60.75879 -54.62773 36989 ft 539 kts 60°
2026-05-07 20:24 60.95343 -53.96176 36968 ft 539 kts 60°
2026-05-07 20:25 61.14871 -53.27348 37037 ft 537 kts 60°
2026-05-07 20:25 61.34131 -52.57352 37066 ft 537 kts 61°
2026-05-07 20:26 61.52927 -51.86874 37106 ft 534 kts 61°
2026-05-07 20:26 61.70845 -51.17552 37114 ft 533 kts 62°
2026-05-07 20:27 61.88011 -50.49037 37141 ft 531 kts 62°
2026-05-07 20:27 62.00809 -49.78007 37149 ft 526 kts 86°
2026-05-07 20:28 62.03154 -49.01176 37152 ft 526 kts 88°
2026-05-07 20:28 62.05184 -48.24213 37158 ft 524 kts 89°
2026-05-07 20:29 62.06765 -47.48097 37187 ft 521 kts 89°
2026-05-07 20:29 62.07915 -46.72780 37215 ft 519 kts 90°
2026-05-07 20:30 62.08656 -45.97125 37226 ft 518 kts 90°
2026-05-07 20:30 62.08991 -45.20436 37230 ft 517 kts 90°
2026-05-07 20:31 62.08908 -44.46485 37219 ft 512 kts 90°
2026-05-07 20:31 62.08418 -43.71468 37184 ft 511 kts 90°
2026-05-07 20:32 62.07495 -42.94495 37235 ft 508 kts 91°
2026-05-07 20:32 62.06165 -42.18414 37267 ft 505 kts 91°
2026-05-07 20:33 62.04532 -41.47078 37287 ft 505 kts 91°
2026-05-07 20:33 62.02434 -40.72601 37304 ft 504 kts 92°
2026-05-07 20:34 62.00163 -39.98356 37300 ft 499 kts 88°
2026-05-07 20:34 62.02510 -39.24688 37311 ft 498 kts 84°
2026-05-07 20:35 62.04581 -38.50928 37321 ft 494 kts 84°
2026-05-07 20:35 62.06291 -37.75394 37333 ft 493 kts 84°
2026-05-07 20:36 62.07594 -36.99557 37347 ft 495 kts 84°
2026-05-07 20:36 62.08482 -36.23649 37390 ft 496 kts 84°
2026-05-07 20:37 62.08954 -35.48477 37350 ft 495 kts 85°
2026-05-07 20:37 62.09014 -34.73445 37370 ft 492 kts 84°
2026-05-07 20:38 62.08674 -33.99072 37378 ft 492 kts 85°
2026-05-07 20:38 62.07927 -33.24290 37385 ft 492 kts 85°
2026-05-07 20:39 62.06773 -32.49407 37400 ft 493 kts 85°
2026-05-07 20:39 62.05242 -31.75564 37400 ft 495 kts 85°
2026-05-07 20:40 62.03321 -31.02052 37381 ft 497 kts 86°
2026-05-07 20:40 62.01010 -30.28773 37378 ft 498 kts 87°
2026-05-07 20:40 61.98687 -29.91968 37378 ft 510 kts 98°
2026-05-07 20:41 61.93094 -29.55411 37366 ft 514 kts 102°
2026-05-07 20:41 61.81343 -28.81850 37356 ft 513 kts 103°
2026-05-07 20:42 61.69384 -28.09891 37347 ft 514 kts 104°
2026-05-07 20:42 61.57050 -27.38454 37347 ft 513 kts 105°
2026-05-07 20:43 61.44118 -26.66372 37312 ft 512 kts 106°
2026-05-07 20:43 61.30792 -25.94790 37322 ft 512 kts 107°
2026-05-07 20:44 61.18198 -25.29470 37281 ft 512 kts 108°
2026-05-07 20:44 61.04942 -24.62937 37258 ft 512 kts 109°
2026-05-07 20:45 60.90717 -23.93872 37255 ft 511 kts 110°
2026-05-07 20:45 60.75967 -23.24651 37227 ft 512 kts 111°
2026-05-07 20:46 60.63451 -22.67655 37208 ft 511 kts 111°
2026-05-07 20:46 60.48103 -21.99790 37188 ft 510 kts 112°
2026-05-07 20:47 60.32881 -21.34555 37165 ft 510 kts 113°
2026-05-07 20:47 60.17848 -20.72000 37151 ft 511 kts 114°
2026-05-07 20:48 60.09136 -20.36555 37158 ft 511 kts 114°
2026-05-07 20:48 60.05961 -20.23771 37149 ft 512 kts 115°
2026-05-07 20:49 60.02791 -20.11098 37143 ft 512 kts 115°
2026-05-07 20:49 59.99595 -19.98372 37132 ft 512 kts 114°
2026-05-07 20:50 59.96510 -19.85541 37125 ft 511 kts 114°
2026-05-07 20:50 59.93439 -19.72721 37128 ft 511 kts 114°
2026-05-07 20:51 59.90342 -19.59903 37129 ft 512 kts 114°
2026-05-07 20:51 59.87236 -19.47143 37109 ft 513 kts 114°
2026-05-07 20:52 59.84091 -19.34307 37118 ft 516 kts 115°
2026-05-07 20:52 59.80931 -19.21496 37100 ft 514 kts 115°
2026-05-07 20:53 59.77751 -19.08727 37097 ft 516 kts 114°
2026-05-07 20:53 59.74556 -18.95923 37113 ft 515 kts 115°
2026-05-07 20:54 59.71364 -18.83229 37096 ft 514 kts 115°
2026-05-07 20:54 59.68150 -18.70489 37099 ft 518 kts 115°
2026-05-07 20:55 59.64919 -18.57746 37083 ft 514 kts 116°
2026-05-07 20:55 59.61674 -18.45073 37072 ft 518 kts 116°
2026-05-07 20:56 59.58408 -18.32374 37080 ft 517 kts 116°
2026-05-07 20:56 59.55147 -18.19756 37061 ft 516 kts 116°
2026-05-07 20:57 59.51879 -18.07186 37067 ft 519 kts 116°
2026-05-07 20:57 59.48586 -17.94568 37048 ft 516 kts 117°
2026-05-07 20:58 59.45279 -17.81990 37045 ft 517 kts 117°
2026-05-07 20:58 59.41950 -17.69387 37045 ft 518 kts 117°
2026-05-07 20:59 59.38628 -17.56891 37021 ft 516 kts 118°
2026-05-07 20:59 59.35284 -17.44389 37026 ft 519 kts 118°
2026-05-07 21:00 59.31925 -17.31901 37032 ft 515 kts 118°
2026-05-07 21:00 59.28572 -17.19482 37015 ft 517 kts 118°
2026-05-07 21:01 59.25174 -17.06982 37015 ft 518 kts 118°
2026-05-07 21:01 59.21788 -16.94600 37013 ft 515 kts 118°
2026-05-07 21:02 59.18394 -16.82224 36987 ft 518 kts 119°
2026-05-07 21:02 59.14979 -16.69861 36993 ft 516 kts 119°
2026-05-07 21:03 59.11572 -16.57594 36974 ft 515 kts 119°
2026-05-07 21:03 59.08135 -16.45276 36967 ft 519 kts 119°
2026-05-07 21:04 59.04678 -16.32984 36971 ft 516 kts 119°
2026-05-07 21:04 59.01229 -16.20751 36946 ft 517 kts 120°
2026-05-07 21:05 58.97742 -16.08465 36951 ft 518 kts 120°
2026-05-07 21:05 58.94268 -15.96288 36948 ft 515 kts 120°
2026-05-07 21:06 58.90789 -15.84150 36922 ft 519 kts 121°
2026-05-07 21:06 58.87256 -15.71927 36931 ft 519 kts 121°
2026-05-07 21:07 58.83749 -15.59829 36911 ft 516 kts 121°
2026-05-07 21:07 58.80218 -15.47700 36914 ft 519 kts 121°
2026-05-07 21:08 58.76658 -15.35574 36916 ft 517 kts 121°
2026-05-07 21:08 58.73117 -15.23530 36896 ft 516 kts 121°
2026-05-07 21:09 58.69551 -15.11457 36888 ft 519 kts 121°
2026-05-07 21:09 58.64634 -14.94964 36866 ft 515 kts 122°
2026-05-07 21:10 58.57425 -14.70975 36865 ft 518 kts 122°
2026-05-07 21:10 58.50206 -14.47188 36846 ft 518 kts 123°
2026-05-07 21:11 58.42935 -14.23469 36823 ft 516 kts 122°
2026-05-07 21:11 58.31938 -13.88081 36804 ft 516 kts 123°
2026-05-07 21:12 58.24542 -13.64578 36783 ft 514 kts 123°
2026-05-07 21:12 58.17153 -13.41280 36764 ft 516 kts 124°
2026-05-07 21:13 58.09719 -13.18113 36768 ft 514 kts 124°
2026-05-07 21:13 58.02209 -12.94950 36744 ft 513 kts 125°
2026-05-07 21:14 57.94683 -12.71919 36738 ft 516 kts 124°
2026-05-07 21:14 57.87129 -12.49053 36734 ft 514 kts 125°
2026-05-07 21:15 57.79531 -12.26279 36742 ft 512 kts 125°
2026-05-07 21:15 57.71949 -12.03727 36735 ft 511 kts 126°
2026-05-07 21:16 57.64320 -11.81295 36715 ft 509 kts 126°
2026-05-07 21:16 57.56667 -11.58997 36734 ft 509 kts 126°
2026-05-07 21:17 57.49047 -11.36970 36747 ft 508 kts 127°
2026-05-07 21:17 57.41334 -11.14911 36730 ft 507 kts 127°
2026-05-07 21:18 57.33588 -10.92954 36760 ft 508 kts 127°
2026-05-07 21:18 57.27121 -10.74774 36748 ft 507 kts 127°
2026-05-07 21:19 57.19254 -10.52850 36762 ft 504 kts 127°
2026-05-07 21:19 57.11515 -10.31446 36780 ft 504 kts 128°
2026-05-07 21:20 57.03786 -10.09838 36794 ft 506 kts 124°
2026-05-07 21:20 56.97966 -9.86222 36793 ft 510 kts 112°
2026-05-07 21:21 56.94169 -9.61033 36807 ft 511 kts 109°
2026-05-07 21:21 56.88939 -9.37049 36806 ft 502 kts 121°
2026-05-07 21:22 56.82547 -9.14309 36824 ft 501 kts 121°
2026-05-07 21:22 56.76147 -8.91658 36815 ft 500 kts 122°
2026-05-07 21:23 56.69725 -8.69134 36833 ft 500 kts 122°
2026-05-07 21:23 56.63260 -8.46678 36849 ft 500 kts 122°
2026-05-07 21:24 56.56758 -8.24310 36839 ft 500 kts 122°
2026-05-07 21:24 56.50234 -8.02074 36853 ft 498 kts 122°
2026-05-07 21:25 56.43672 -7.79929 36868 ft 498 kts 123°
2026-05-07 21:25 56.37080 -7.57889 36882 ft 498 kts 123°
2026-05-07 21:26 56.30466 -7.35976 36878 ft 495 kts 123°
2026-05-07 21:26 56.23842 -7.14238 36897 ft 494 kts 123°
2026-05-07 21:27 56.17173 -6.92552 36901 ft 494 kts 123°
2026-05-07 21:27 56.10493 -6.71034 36892 ft 492 kts 123°
2026-05-07 21:28 56.03781 -6.49592 36911 ft 492 kts 123°
2026-05-07 21:28 55.96930 -6.27910 36925 ft 492 kts 123°
2026-05-07 21:29 55.90129 -6.06577 36926 ft 491 kts 124°
2026-05-07 21:29 55.83327 -5.85431 36928 ft 491 kts 124°
2026-05-07 21:30 55.76400 -5.64086 36931 ft 491 kts 124°
2026-05-07 21:30 55.69482 -5.42966 36934 ft 490 kts 124°
2026-05-07 21:31 55.63215 -5.23987 36933 ft 490 kts 124°
2026-05-07 21:31 55.59761 -5.13584 36936 ft 490 kts 124°
2026-05-07 21:32 55.56296 -5.03191 36939 ft 490 kts 124°
2026-05-07 21:32 55.52822 -4.92829 36934 ft 489 kts 124°
2026-05-07 21:33 55.49358 -4.82529 36941 ft 489 kts 124°
2026-05-07 21:33 55.45852 -4.72151 36941 ft 489 kts 124°
2026-05-07 21:34 55.42360 -4.61860 36925 ft 489 kts 124°
2026-05-07 21:34 55.38833 -4.51515 36936 ft 489 kts 124°
2026-05-07 21:35 55.35319 -4.41249 36922 ft 489 kts 124°
2026-05-07 21:35 55.31796 -4.31003 36942 ft 490 kts 124°
2026-05-07 21:36 55.28261 -4.20762 36958 ft 490 kts 124°
2026-05-07 21:36 55.24715 -4.10529 36970 ft 490 kts 124°
2026-05-07 21:37 55.21161 -4.00318 36970 ft 490 kts 124°
2026-05-07 21:37 55.17624 -3.90198 36968 ft 490 kts 124°
2026-05-07 21:38 55.14043 -3.79995 36974 ft 491 kts 124°
2026-05-07 21:38 55.10458 -3.69823 36980 ft 491 kts 124°
2026-05-07 21:39 55.06856 -3.59646 36981 ft 491 kts 124°
2026-05-07 21:39 55.03254 -3.49509 36987 ft 491 kts 125°
2026-05-07 21:40 54.99646 -3.39398 36990 ft 491 kts 125°
2026-05-07 21:40 54.96020 -3.29281 36972 ft 491 kts 125°
2026-05-07 21:41 54.92388 -3.19191 36984 ft 491 kts 125°
2026-05-07 21:41 54.88747 -3.09112 36998 ft 491 kts 125°
2026-05-07 21:42 54.85127 -2.99130 36998 ft 491 kts 125°
2026-05-07 21:42 54.81470 -2.89090 37000 ft 491 kts 125°
2026-05-07 21:43 54.77809 -2.79079 37001 ft 491 kts 125°
2026-05-07 21:43 54.74140 -2.69089 36991 ft 491 kts 125°
2026-05-07 21:44 54.70460 -2.59115 36993 ft 491 kts 125°
2026-05-07 21:44 54.66770 -2.49144 37002 ft 491 kts 125°
2026-05-07 21:45 54.63070 -2.39188 36999 ft 491 kts 125°
2026-05-07 21:45 54.59366 -2.29263 37001 ft 491 kts 125°
2026-05-07 21:46 54.55652 -2.19350 37005 ft 491 kts 126°
2026-05-07 21:46 54.51934 -2.09471 36999 ft 490 kts 125°
2026-05-07 21:47 54.48215 -1.99625 36999 ft 489 kts 126°
2026-05-07 21:47 54.44490 -1.89804 37004 ft 491 kts 126°
2026-05-07 21:48 54.40745 -1.79967 37030 ft 491 kts 126°
2026-05-07 21:48 54.36994 -1.70151 37037 ft 491 kts 126°
2026-05-07 21:49 54.33239 -1.60366 37043 ft 491 kts 126°
2026-05-07 21:49 54.29475 -1.50598 37043 ft 490 kts 126°
2026-05-07 21:50 54.25714 -1.40871 37038 ft 489 kts 126°
2026-05-07 21:50 54.21942 -1.31161 37047 ft 491 kts 126°
2026-05-07 21:51 54.18148 -1.21428 37045 ft 492 kts 126°
2026-05-07 21:51 54.14981 -1.13334 37042 ft 492 kts 126°
2026-05-07 21:52 54.11165 -1.03622 37037 ft 491 kts 126°
2026-05-07 21:52 54.07253 -0.94085 37044 ft 489 kts 130°
2026-05-07 21:53 54.02823 -0.85330 37046 ft 487 kts 136°
2026-05-07 21:53 53.97861 -0.77497 37048 ft 485 kts 143°
2026-05-07 21:54 53.92448 -0.70668 37054 ft 485 kts 148°
2026-05-07 21:54 53.86886 -0.64179 37055 ft 485 kts 147°
2026-05-07 21:55 53.81325 -0.57673 37067 ft 485 kts 148°
2026-05-07 21:55 53.75758 -0.51184 37070 ft 485 kts 148°
2026-05-07 21:56 53.70185 -0.44714 37067 ft 486 kts 148°
2026-05-07 21:56 53.64623 -0.38190 37072 ft 487 kts 146°
2026-05-07 21:57 53.59402 -0.30983 37073 ft 489 kts 140°
2026-05-07 21:57 53.54587 -0.22834 37073 ft 491 kts 134°
2026-05-07 21:58 53.50274 -0.13888 37072 ft 493 kts 129°
2026-05-07 21:58 53.46146 -0.04679 37071 ft 493 kts 129°
2026-05-07 21:59 53.42001 0.04501 37065 ft 492 kts 129°
2026-05-07 21:59 53.37854 0.13651 37069 ft 492 kts 129°
2026-05-07 22:00 53.33700 0.22779 37074 ft 492 kts 129°
2026-05-07 22:00 53.29538 0.31891 37076 ft 492 kts 129°
2026-05-07 22:01 53.25371 0.40976 37079 ft 492 kts 129°
2026-05-07 22:01 53.21186 0.50072 37076 ft 494 kts 129°
2026-05-07 22:02 53.16966 0.59205 37073 ft 493 kts 129°
2026-05-07 22:02 53.12763 0.68265 37089 ft 493 kts 130°
2026-05-07 22:03 53.08584 0.77235 37087 ft 493 kts 130°
2026-05-07 22:03 53.04365 0.86256 37089 ft 493 kts 130°
2026-05-07 22:04 53.00387 0.95582 37083 ft 495 kts 124°
2026-05-07 22:04 52.96984 1.05545 37095 ft 498 kts 118°
2026-05-07 22:05 52.94205 1.16098 37094 ft 499 kts 112°
2026-05-07 22:05 52.91763 1.26914 37095 ft 499 kts 112°
2026-05-07 22:06 52.89315 1.37702 37097 ft 499 kts 112°
2026-05-07 22:06 52.86853 1.48471 37100 ft 499 kts 112°
2026-05-07 22:07 52.84382 1.59210 37094 ft 498 kts 112°
2026-05-07 22:07 52.81896 1.69960 37103 ft 498 kts 112°
2026-05-07 22:08 52.79406 1.80670 37100 ft 498 kts 112°
2026-05-07 22:08 52.76923 1.91297 37103 ft 498 kts 112°
2026-05-07 22:09 52.74404 2.02024 37094 ft 498 kts 113°
2026-05-07 22:09 52.71881 2.12716 37106 ft 499 kts 113°
2026-05-07 22:10 52.69349 2.23393 37110 ft 499 kts 113°
2026-05-07 22:10 52.66805 2.34065 37111 ft 499 kts 113°
2026-05-07 22:11 52.64249 2.44734 37106 ft 499 kts 113°
2026-05-07 22:11 52.61688 2.55371 37102 ft 498 kts 113°
2026-05-07 22:12 52.59117 2.65996 37107 ft 498 kts 113°
2026-05-07 22:12 52.56537 2.76596 37108 ft 498 kts 113°
2026-05-07 22:13 52.53841 2.87096 37105 ft 497 kts 117°
2026-05-07 22:13 52.50886 2.97310 37106 ft 497 kts 117°
2026-05-07 22:14 52.47895 3.07587 37093 ft 497 kts 117°
2026-05-07 22:14 52.44892 3.17858 37102 ft 499 kts 117°
2026-05-07 22:15 52.41857 3.28195 37098 ft 499 kts 117°
2026-05-07 22:15 52.38851 3.38389 37096 ft 499 kts 117°
2026-05-07 22:16 52.35816 3.48636 37089 ft 499 kts 117°
2026-05-07 22:16 52.32770 3.58876 37099 ft 499 kts 118°
2026-05-07 22:17 52.29720 3.69090 37095 ft 499 kts 118°
2026-05-07 22:17 52.26659 3.79292 37101 ft 499 kts 118°
2026-05-07 22:18 52.22046 3.94588 37098 ft 499 kts 118°
2026-05-07 22:19 52.18956 4.04779 37092 ft 500 kts 118°
2026-05-07 22:19 52.15880 4.14880 37095 ft 500 kts 118°
2026-05-07 22:20 52.12775 4.25036 37098 ft 500 kts 118°
2026-05-07 22:20 52.09656 4.35192 37084 ft 500 kts 118°
2026-05-07 22:21 52.06533 4.45318 37084 ft 500 kts 118°
2026-05-07 22:21 52.03403 4.55430 37087 ft 500 kts 118°
2026-05-07 22:22 52.00259 4.65544 37098 ft 500 kts 118°
2026-05-07 22:22 51.97127 4.75575 37084 ft 500 kts 118°
2026-05-07 22:23 51.93976 4.85629 37075 ft 500 kts 119°
2026-05-07 22:23 51.90906 4.95380 37079 ft 501 kts 119°
2026-05-07 22:24 51.87715 5.05477 37096 ft 501 kts 119°
2026-05-07 22:24 51.85042 5.13905 37093 ft 501 kts 119°
2026-05-07 22:25 51.81862 5.23892 37093 ft 501 kts 119°
2026-05-07 22:25 51.78661 5.33903 37087 ft 501 kts 119°
2026-05-07 22:26 51.75450 5.43907 37094 ft 500 kts 119°
2026-05-07 22:26 51.73849 5.48899 37214 ft 501 kts 119°
2026-05-07 22:26 51.72237 5.53897 37132 ft 500 kts 119°
2026-05-07 22:27 51.69009 5.63854 37111 ft 500 kts 119°
2026-05-07 22:27 51.65772 5.73806 37096 ft 501 kts 119°
2026-05-07 22:28 51.62522 5.83766 37092 ft 502 kts 119°
2026-05-07 22:28 51.59265 5.93708 37092 ft 502 kts 119°
2026-05-07 22:29 51.55993 6.03650 37100 ft 502 kts 120°
2026-05-07 22:29 51.52716 6.13564 37098 ft 502 kts 120°
2026-05-07 22:30 51.49613 6.23639 37098 ft 503 kts 115°
2026-05-07 22:30 51.47008 6.34073 37098 ft 503 kts 113°
2026-05-07 22:31 51.44442 6.44547 37067 ft 504 kts 113°
2026-05-07 22:31 51.43153 6.49783 36681 ft 504 kts 113°
2026-05-07 22:31 51.41862 6.55013 36170 ft 504 kts 113°
2026-05-07 22:31 51.40571 6.60222 35601 ft 503 kts 113°
2026-05-07 22:32 51.39275 6.65440 35002 ft 502 kts 113°
2026-05-07 22:32 51.37978 6.70648 34399 ft 502 kts 113°
2026-05-07 22:32 51.36677 6.75861 33711 ft 502 kts 113°
2026-05-07 22:32 51.35377 6.81054 33077 ft 503 kts 113°
2026-05-07 22:33 51.34071 6.86256 32445 ft 504 kts 113°
2026-05-07 22:33 51.32756 6.91482 31806 ft 505 kts 113°
2026-05-07 22:33 51.31440 6.96699 31152 ft 506 kts 113°
2026-05-07 22:33 51.30109 7.01962 30466 ft 507 kts 113°
2026-05-07 22:34 51.28778 7.07196 29688 ft 507 kts 114°
2026-05-07 22:34 51.27068 7.12111 28869 ft 503 kts 128°
2026-05-07 22:34 51.24693 7.16140 28213 ft 494 kts 142°
2026-05-07 22:34 51.21832 7.19128 27672 ft 484 kts 154°
2026-05-07 22:35 51.18840 7.21489 27267 ft 475 kts 156°
2026-05-07 22:35 51.15884 7.23769 26776 ft 469 kts 156°
2026-05-07 22:35 51.12967 7.26036 26265 ft 464 kts 155°
2026-05-07 22:35 51.10125 7.28295 25806 ft 459 kts 155°
2026-05-07 22:36 51.07297 7.30622 25346 ft 454 kts 154°
2026-05-07 22:36 51.04499 7.32941 24899 ft 449 kts 154°
2026-05-07 22:36 51.01727 7.35237 24242 ft 450 kts 154°
2026-05-07 22:36 50.98947 7.37531 23565 ft 451 kts 154°
2026-05-07 22:37 50.96163 7.39823 22820 ft 450 kts 154°
2026-05-07 22:37 50.93381 7.42108 22136 ft 448 kts 154°
2026-05-07 22:37 50.90619 7.44373 21468 ft 446 kts 154°
2026-05-07 22:37 50.87867 7.46626 20809 ft 444 kts 154°
2026-05-07 22:38 50.85134 7.48862 20307 ft 438 kts 154°
2026-05-07 22:38 50.82452 7.51054 19901 ft 430 kts 154°
2026-05-07 22:38 50.79809 7.53210 19464 ft 424 kts 154°
2026-05-07 22:38 50.77200 7.55334 19038 ft 418 kts 154°
2026-05-07 22:39 50.74622 7.57430 18612 ft 414 kts 154°
2026-05-07 22:39 50.72075 7.59497 18141 ft 409 kts 154°
2026-05-07 22:39 50.69535 7.61559 17670 ft 405 kts 154°
2026-05-07 22:39 50.67041 7.63581 17230 ft 400 kts 154°
2026-05-07 22:40 50.64647 7.65519 16821 ft 396 kts 154°
2026-05-07 22:40 50.62130 7.67554 16382 ft 392 kts 154°
2026-05-07 22:40 50.59692 7.69521 15959 ft 388 kts 154°
2026-05-07 22:40 50.57292 7.71457 15541 ft 385 kts 154°
2026-05-07 22:41 50.54914 7.73373 15122 ft 382 kts 155°
2026-05-07 22:41 50.52551 7.75273 14705 ft 380 kts 155°
2026-05-07 22:41 50.50202 7.77160 14292 ft 378 kts 155°
2026-05-07 22:41 50.47865 7.79035 13873 ft 375 kts 155°
2026-05-07 22:42 50.45554 7.80923 13416 ft 373 kts 153°
2026-05-07 22:42 50.43329 7.83019 12989 ft 371 kts 148°
2026-05-07 22:42 50.41193 7.85392 12835 ft 381 kts 144°
2026-05-07 22:42 50.39097 7.87970 12842 ft 381 kts 144°
2026-05-07 22:43 50.36846 7.90070 12342 ft 376 kts 160°
2026-05-07 22:43 50.34302 7.90881 11681 ft 374 kts 180°
2026-05-07 22:43 50.31758 7.90267 11138 ft 368 kts 198°
2026-05-07 22:43 50.29402 7.88897 10681 ft 364 kts 202°
2026-05-07 22:44 50.27054 7.87373 10396 ft 354 kts 203°
2026-05-07 22:44 50.24824 7.85896 10202 ft 343 kts 204°
2026-05-07 22:44 50.22662 7.84460 10012 ft 333 kts 204°
2026-05-07 22:44 50.20587 7.83081 9811 ft 323 kts 204°
2026-05-07 22:45 50.18524 7.81713 9602 ft 313 kts 204°
2026-05-07 22:45 50.16573 7.80424 9416 ft 304 kts 204°
2026-05-07 22:45 50.14651 7.79164 9229 ft 294 kts 204°
2026-05-07 22:45 50.12785 7.77954 9022 ft 286 kts 204°
2026-05-07 22:46 50.10967 7.76782 8783 ft 280 kts 204°
2026-05-07 22:46 50.09167 7.75624 8427 ft 278 kts 203°
2026-05-07 22:46 50.07306 7.74831 8043 ft 280 kts 183°
2026-05-07 22:46 50.05372 7.75060 7744 ft 278 kts 173°
2026-05-07 22:47 50.03468 7.75549 7393 ft 277 kts 171°
2026-05-07 22:47 50.01570 7.76081 7053 ft 276 kts 170°
2026-05-07 22:47 49.99690 7.76610 6733 ft 274 kts 171°
2026-05-07 22:47 49.97814 7.77140 6415 ft 273 kts 170°
2026-05-07 22:48 49.95947 7.77664 6065 ft 272 kts 170°
2026-05-07 22:48 49.94105 7.78308 5697 ft 272 kts 158°
2026-05-07 22:48 49.92557 7.79961 5345 ft 270 kts 135°
2026-05-07 22:48 49.91298 7.82095 5128 ft 266 kts 130°
2026-05-07 22:49 49.90101 7.84290 5108 ft 267 kts 129°
2026-05-07 22:49 49.89194 7.86773 5064 ft 266 kts 103°
2026-05-07 22:49 49.89144 7.89617 5095 ft 266 kts 78°
2026-05-07 22:49 49.89713 7.92342 5112 ft 266 kts 65°
2026-05-07 22:50 49.90496 7.94950 5106 ft 266 kts 64°
2026-05-07 22:50 49.91261 7.97564 5101 ft 265 kts 66°
2026-05-07 22:50 49.91979 8.00222 5101 ft 265 kts 67°
2026-05-07 22:50 49.92655 8.02898 5102 ft 266 kts 68°
2026-05-07 22:51 49.93308 8.05601 5100 ft 266 kts 69°
2026-05-07 22:51 49.93932 8.08249 5089 ft 260 kts 69°
2026-05-07 22:51 49.94539 8.10857 5078 ft 245 kts 69°
2026-05-07 22:51 49.95099 8.13273 5073 ft 229 kts 69°
2026-05-07 22:52 49.95626 8.15543 5060 ft 223 kts 69°
2026-05-07 22:52 49.96168 8.17861 4930 ft 233 kts 69°
2026-05-07 22:52 49.96715 8.20199 4614 ft 225 kts 69°
2026-05-07 22:52 49.97246 8.22468 4301 ft 215 kts 69°
2026-05-07 22:53 49.97745 8.24589 3974 ft 208 kts 69°
2026-05-07 22:53 49.98234 8.26661 3652 ft 201 kts 69°
2026-05-07 22:53 49.98711 8.28681 3353 ft 191 kts 69°
2026-05-07 22:53 49.99155 8.30559 3071 ft 179 kts 69°
2026-05-07 22:54 49.99570 8.32314 2820 ft 167 kts 70°
2026-05-07 22:54 49.99956 8.33942 2570 ft 154 kts 70°
2026-05-07 22:54 50.00323 8.35487 2374 ft 151 kts 70°
2026-05-07 22:54 50.00687 8.37021 2175 ft 151 kts 70°
2026-05-07 22:55 50.01051 8.38557 1961 ft 150 kts 70°
2026-05-07 22:55 50.01413 8.40081 1746 ft 150 kts 70°
2026-05-07 22:55 50.01762 8.41602 1499 ft 149 kts 70°
2026-05-07 22:55 50.02118 8.43116 1300 ft 148 kts 69°
2026-05-07 22:56 50.02484 8.44616 1078 ft 148 kts 69°
2026-05-07 22:56 50.02837 8.46117 850 ft 147 kts 67°
2026-05-07 22:56 50.03199 8.47608 631 ft 147 kts 68°
2026-05-07 22:56 50.03552 8.49092 427 ft 146 kts 67°
2026-05-07 22:57 50.03896 8.50511 361 ft 117 kts 69°
2026-05-07 22:57 50.04045 8.51125 360 ft 66 kts 70°
2026-05-07 22:57 50.04164 8.51623 359 ft 46 kts 69°
2026-05-07 22:57 50.04238 8.52060 354 ft 30 kts 89°
2026-05-07 22:58 50.04216 8.52318 358 ft 25 kts 101°
2026-05-07 22:58 50.04193 8.52595 359 ft 26 kts 87°
2026-05-07 22:58 50.04244 8.52868 361 ft 27 kts 67°
2026-05-07 22:58 50.04293 8.53053 361 ft 13 kts 70°
2026-05-07 22:59 50.04329 8.53206 356 ft 16 kts 70°
2026-05-07 22:59 50.04373 8.53390 360 ft 20 kts 69°
2026-05-07 22:59 50.04405 8.53607 356 ft 22 kts 84°
2026-05-07 22:59 50.04419 8.53855 354 ft 24 kts 84°
2026-05-07 23:00 50.04436 8.54126 360 ft 26 kts 84°
2026-05-07 23:00 50.04454 8.54414 355 ft 27 kts 85°
2026-05-07 23:00 50.04386 8.54689 359 ft 28 kts 132°
2026-05-07 23:00 50.04213 8.54833 360 ft 29 kts 160°
2026-05-07 23:01 50.04030 8.54936 356 ft 16 kts 142°
2026-05-07 23:01 50.04031 8.55062 359 ft 13 kts 72°
2026-05-07 23:01 50.04067 8.55212 359 ft 16 kts 69°
2026-05-07 23:01 50.04165 8.55625 359 ft 67 kts 70°
2026-05-07 23:02 50.04246 8.55968 362 ft 0 kts 69°
2026-05-07 23:02 50.04255 8.56005 361 ft 20 kts 69°
2026-05-07 23:02 50.04337 8.56341 357 ft 38 kts 69°
2026-05-07 23:02 50.04425 8.56710 355 ft 28 kts 70°
2026-05-07 23:03 50.04505 8.56871 357 ft 15 kts 21°
2026-05-07 23:03 50.04589 8.56832 362 ft 14 kts 305°
2026-05-07 23:03 50.04598 8.56807 362 ft 2 kts 294°
2026-05-07 23:03 50.04600 8.56799 363 ft 0 kts 294°